Location: Vlasim
(49.7000°N, 14.9000°E)
Time: 15:24:11
(UTC+02:00)

ISS - Visible Passes

Search period start: 17 October 2019 00:00
Search period end: 27 October 2019 00:00
Orbit: 411 x 421 km, 51.6° (Epoch: 17 October)

Date Brightness Start Highest point End Pass type
(mag) Time Alt. Az. Time Alt. Az. Time Alt. Az.
24 Oct -0.9 06:50:14 10° S 06:52:37 18° SE 06:55:01 10° E visible
25 Oct -0.7 06:02:54 10° SSE 06:04:16 12° SE 06:05:38 10° ESE visible
26 Oct -2.3 06:48:47 10° SW 06:51:55 37° SSE 06:55:03 10° E visible
